STARLINK-32243, 60367

Orbit data source: Space-Track

STARLINK-32243, 60367 is a payload satellite owned by SpaceX/Seattle (US) in LEO that was launched on Sun, 04 Aug 2024 UTC via an FALCON 9 launch vehicle from the Air Force Western Test Range (AFWTR). Payload-class satellites include a variety of spacecraft equipped with specific instruments for various scientific and technological missions. These include communications satellites like Starlink; space stations such as the ISS; scientific satellites like the Hubble; Earth observation satellites from companies like Planet Labs, Umbra, and HawkEye 360; GPS; miniature CubeSats for education and research; and military/defense satellites.

Loading next visibility...
Identifier
60367, 2024-138N
Orbit
LEO
Last TLE update
9 hours ago
Origin
Manufacturer
SpaceX/Seattle
Mission
Operational Commercial Communications
Bus & Motor
STARLINK V2M, Unknown motor
Mass
730 kg wet, ~700 kg dry
Launch date (UTC)
2024-08-04 (11 months ago)
Launch vehicle
FALCON 9
Launch site
Air Force Western Test Range (AFWTR)
Object type
Payload
Rocket body
Debris
Shape & HBR
Box + 2 Pan, 29 m
Radar Cross Section
33.884 m², Large (>1 m²)

Expand to show TLE details & history

TLE from 9 hours ago
0 STARLINK-32243
1 60367U 24138N   25182.01205124  .00006481  00000-0  23103-3 0  9994
2 60367  53.1615  38.6913 0001050  86.2999 273.8122 15.30162048 51656
Epoch: 2025-07-01T00:17Z
TLE epoch observation values (Epoch: 2025-07-01T00:17:21.227Z)
Latitude
0.00001°
Longitude
115.03924°
Altitude
476.18 km
Speed
7.629 km/s
True Right ascension
02h 34m 45s
True Declination
0° 00' 00"
Sunlit
Object was in daylight at epoch
Visualization orbit readout
Latitude
-46.26699°
Longitude
62.13001°
Altitude
491.693 km
Speed
7.618 km/s
Apparent Right ascension
04h 15m 42s
Apparent Declination
-74° 29' 04"
Sunlit
Object is in full shadow
Visualization observer readout
Local Sidereal Time
21:03:10
Azimuth
159.656° S
Elevation
-43.011°
Doppler factor
1
Orbital elements
Apogee altitude
476.304 km
Perigee altitude
474.865 km
Semi-major axis
6,853.722 km
Eccentricity
0.00011
Inclination
53.1615°
RAAN
38.6913°
Arg. of periapsis
86.2999°
True anomaly
Unknown
Mean anomaly
273.8122°
Eccentric anomaly
Unknown
Mean motion
3.82519 °/min
Orbital period
94.11 mins
BSTAR
0.00023103
Loading maneuver chart data...
Loading SW <> Apogee altitude chart data...
Loading historical data...
Loading historical data...
Loading historical data...
Loading historical data...
Loading historical data...
Loading historical data...
Loading historical data...

STARLINK-32243 Visibility forecast

Observer location: undefined°, undefined°

Span
Click to sort rows by Start time (UTC) header in descending order
Start Az.
Max El. time (UTC)
Max El. Az.
Max El.
End time (UTC)
End Az.
5 mins2025-07-01 16:06:53.563Z174.367° S2025-07-01 16:09:53.563Z117.44° SE18.167°2025-07-01 16:11:53.563Z83.371° E
5 mins2025-07-01 17:44:53.563Z257.896° W2025-07-01 17:46:53.563Z315.182° NNW36.446°2025-07-01 17:49:53.563Z37.026° NE
5 mins2025-07-01 22:41:53.563Z342.673° N2025-07-01 22:43:53.563Z25.422° NE21.588°2025-07-01 22:46:53.563Z81.131° E
5 mins2025-07-02 00:19:53.563Z295.327° NW2025-07-02 00:21:53.563Z236.833° WSW39.303°2025-07-02 00:24:53.563Z148.612° SSE
|